Location: *
(40.4270°N, 9.4940°E)
Time: 23:57:39
(UTC+02:00)

Daily predictions for brighter satellites

Satellite Brightness Start Highest point End
(mag) Time Altitude Azimuth Time Altitude Azimuth Time Altitude Azimuth
FENGYUN 3A 3.9 20:23:55 10° SE 20:29:03 50° ENE 20:34:12 10° N
ATLAS CENTAUR R/B 3.6 20:28:01 10° WSW 20:32:41 36° NW 20:37:16 10° NNE
Meteor 1-5 Rocket 4.4 20:27:49 10° SSE 20:32:53 47° E 20:38:05 10° NNE
Meteor 1-19 Rocket 4.4 20:27:40 10° NNW 20:33:21 80° W 20:38:56 10° S
Cosmos 1633 2.7 20:30:09 10° S 20:33:48 80° W 20:37:28 10° N
CZ-2D R/B 3.6 20:30:55 10° SE 20:34:36 45° ENE 20:38:20 10° N
Cosmos 2208 Rocket 4.4 20:30:10 10° S 20:35:10 44° ESE 20:40:16 10° NNE
Hubble Space Telescope 3.0 20:35:40 10° SW 20:37:55 14° S 20:40:10 10° SSE
Cosmos 2082 4.4 20:32:53 10° N 20:38:05 36° ENE 20:43:14 10° SE
EO 1 Delta rocket 4.3 20:35:03 10° NNE 20:39:32 45° E 20:44:34 10° S
Cosmos 1821 Rocket 3.9 20:33:32 10° S 20:39:37 72° E 20:45:41 10° NNE
Cosmos 2297 Rocket 3.2 20:35:33 10° N 20:40:30 30° ENE 20:45:25 10° ESE
Delta 2 Rocket 4.5 20:35:18 10° W 20:40:48 50° S 20:45:45 10° ESE
Meteor 2-16 Rocket 4.5 20:36:00 10° S 20:41:57 60° E 20:47:56 10° NNE
Cosmos 1605 Rocket 4.4 20:36:40 10° SSE 20:42:37 44° E 20:48:31 10° NNE
Cosmos 1544 Rocket 3.5 20:39:19 10° S 20:43:38 68° E 20:48:02 10° NNE
Spot 2 Rocket 4.5 20:41:34 10° S 20:46:31 51° W 20:51:28 10° NNW
Cosmos 1346 Rocket 3.0 20:44:31 10° N 20:48:22 51° ENE 20:52:13 10° SSE
Cosmos 1536 3.7 20:45:42 10° SSW 20:49:36 53° W 20:53:32 10° N
Cosmos 1570 Rocket 4.0 20:47:24 10° S 20:52:40 71° ESE 20:57:55 10° NNE
Envisat 4.1 20:53:22 12° ESE 20:57:04 26° ENE 21:01:15 10° N
NOSS 2-1 (D) 4.5 20:58:39 10° SW 21:02:24 48° NW 21:06:42 10° NNE
NOSS 2-1 (C) 4.5 20:59:39 10° SW 21:03:26 49° NW 21:07:45 10° NNE
Tiangong 1 1.5 21:03:02 10° W 21:06:05 57° N 21:08:32 15° ENE
USA 186 1.6 21:04:18 10° S 21:07:26 83° WSW 21:10:25 10° NNW
OTV 4 0.9 21:06:25 10° W 21:09:17 45° S 21:10:39 25° SE
OAO 2 Rocket 4.0 21:05:06 10° SW 21:09:40 35° SSE 21:12:40 19° ESE
Cosmos 2123 Rocket 4.0 21:05:35 10° N 21:11:48 87° E 21:17:58 10° S
DELTA 2 R/B (1) 3.5 21:07:43 10° W 21:13:18 81° S 21:17:23 19° E
Iridium 4 Rocket 3.6 21:08:33 10° N 21:13:34 49° E 21:17:33 13° SSE
CZ-4 DEB 2.9 21:15:32 24° SE 21:17:07 50° ENE 21:20:11 10° N
Cosmos 1697 Rocket 3.3 21:14:16 10° SSE 21:19:17 34° ESE 21:24:19 10° NE
BREEZE-M DEB (TANK) 4.2 21:16:42 10° SW 21:20:46 84° SE 21:35:53 10° ENE
Cosmos 2278 3.8 21:15:10 10° SSW 21:20:50 84° WNW 21:26:34 10° NNE
Cosmos 1515 4.1 21:19:28 10° N 21:23:09 43° E 21:24:44 28° SE
YAOGAN 11 4.1 21:19:54 16° SSE 21:23:29 67° ENE 21:27:57 10° N
Meteor 1-12 Rocket 4.2 21:21:46 10° S 21:27:28 81° E 21:33:18 10° NNE
Cosmos 1459 Rocket 4.4 21:23:35 16° SSE 21:27:52 39° E 21:33:26 10° NNE
ERS-1 Rocket 2.9 21:27:41 18° SSE 21:31:28 72° ENE 21:36:29 10° N
YAOGAN 6 4.2 21:31:37 20° ENE 21:31:37 20° ENE 21:34:16 10° NNE
Cosmos 1743 3.8 21:32:47 26° E 21:32:47 26° E 21:35:45 10° NNE
Cosmos 2369 3.9 21:28:24 10° SSW 21:34:03 75° WNW 21:39:47 10° NNE
Cosmos 1975 2.8 21:30:04 10° S 21:34:10 90° ESE 21:38:18 10° N
Cosmos 1898 Rocket 3.8 21:30:26 10° N 21:35:36 50° ENE 21:37:55 30° SE
ALOS 3.9 21:32:21 10° SSW 21:36:32 33° W 21:40:46 10° NNW
H-2A R/B 2.4 21:37:57 35° ESE 21:38:57 43° ENE 21:42:53 10° N
Cosmos 1153 Rocket 4.4 21:32:48 10° S 21:39:01 84° E 21:45:12 10° N
USA 215 4.4 21:35:30 14° E 21:40:11 33° NNE 21:45:52 10° NW
Cosmos 1980 Rocket 2.9 21:40:28 30° ESE 21:41:17 31° ESE 21:46:13 10° NE
Cosmos 1626 Rocket 3.7 21:39:30 10° NNW 21:43:54 72° W 21:47:00 19° S
SL-24 R/B - RUBIN 2 4.3 21:39:00 10° SSW 21:44:45 75° ESE 21:51:13 10° NE
Lacrosse 5 rocket 0.9 21:42:04 10° NW 21:45:48 86° NE 21:46:27 57° SE
ARGOS 4.2 21:44:46 25° E 21:45:52 27° ENE 21:50:18 10° N
deb Chang Zheng 4 3.7 21:42:37 10° NNE 21:47:00 54° E 21:48:37 35° SSE
Cosmos 1602 Rocket 4.1 21:47:46 10° NNW 21:52:10 58° W 21:55:21 18° SSW
Cosmos 1802 Rocket 4.2 21:48:40 24° SSE 21:52:24 54° E 21:58:38 10° NNE
Cosmos 1461 3.7 21:49:51 10° NW 21:53:40 41° WSW 21:55:12 28° SSW
Cosmos 468 Rocket 3.8 21:50:00 10° S 21:55:05 73° ESE 22:00:13 10° NNE
Lacrosse 5 2.4 21:56:32 10° NW 22:01:26 47° NE 22:02:40 38° E
Cosmos 1814 Rocket 3.9 21:58:02 12° S 22:02:58 72° ESE 22:08:16 10° NNE
Cosmos 841 Rocket 4.4 22:04:58 31° ENE 22:04:58 31° ENE 22:08:26 10° NE
MetOp-B 4.1 22:03:53 46° SE 22:05:18 63° ENE 22:10:36 10° N
Cosmos 1939 Rocket 3.5 22:03:52 32° SSW 22:05:31 55° W 22:09:37 10° NNW
SPOT 5 2.9 22:04:20 48° SE 22:05:44 73° ENE 22:10:37 10° N
Cosmos 2227 Rocket 3.4 22:03:41 10° NW 22:08:52 38° WSW 22:12:47 16° SSW
Cosmos 2263 Rocket 4.2 22:08:02 10° NNE 22:10:33 13° NE 22:11:31 12° ENE
Cosmos 2016 Rocket 3.9 22:09:20 40° SSE 22:11:28 63° E 22:17:33 10° NNE
Cosmos 2322 Rocket 4.3 22:16:18 12° ENE 22:16:18 12° ENE 22:16:48 10° NE
Cosmos 2058 Rocket 4.2 22:15:35 31° NE 22:15:35 31° NE 22:18:22 10° NNE
Cosmos 2084 3.2 22:11:53 10° NW 22:15:57 88° W 22:15:57 88° W
Cosmos 1656 4.2 22:11:27 10° SW 22:16:59 58° WNW 22:22:29 10° NNE
SL-19 R/B 4.1 22:14:00 10° NNE 22:19:26 59° ESE 22:19:39 58° ESE
Meteor 2-9 Rocket 4.5 22:23:05 47° ENE 22:23:05 47° ENE 22:27:45 10° NNE
Cosmos 2173 Rocket 4.1 22:19:21 17° SSW 22:24:20 76° W 22:30:43 10° N
Cosmos 2297 Rocket 3.3 22:19:23 10° NW 22:24:36 39° WSW 22:27:18 24° SSW
Cosmos 1606 Rocket 3.6 22:26:19 75° NNE 22:26:19 75° NNE 22:30:23 10° N
Cosmos 2227 4.3 22:21:28 10° NNW 22:27:07 55° ENE 22:27:35 54° E
SL-08 RB Rocket 4.2 22:34:49 51° NE 22:34:49 51° NE 22:38:38 10° N
Cosmos 2061 Rocket 4.4 22:29:34 17° SSW 22:34:30 64° W 22:40:45 10° N
RESURS DK-1 2.9 22:31:07 10° NNW 22:34:33 58° NW 22:34:33 58° NW
Envisat 4.3 22:33:34 24° SW 22:35:54 36° W 22:40:34 10° NNW
H-2A R/B 2.9 22:37:17 34° NE 22:37:17 34° NE 22:40:55 10° N
Cosmos 1864 Rocket 4.3 22:38:43 67° ESE 22:39:00 68° E 22:45:05 10° NNE
Tsikada Rocket 4.0 22:34:09 10° N 22:40:34 66° E 22:41:02 64° ESE
Cosmos 1937 Rocket 3.8 22:37:20 10° NNW 22:42:30 57° WSW 22:43:06 54° SW
Cosmos 967 Rocket 4.3 22:36:22 10° NNW 22:42:44 73° ENE 22:43:18 68° E
Tiangong 1 4.0 22:39:41 10° WNW 22:40:30 16° WNW 22:40:30 16° WNW
Cosmos 2098 Rocket 4.0 22:43:31 53° S 22:45:22 87° E 22:51:32 10° N
Milstar 3 Cent rocket 4.1 22:29:10 10° W 22:45:52 44° SSW 22:48:16 39° S
Terra 3.1 22:48:03 30° NNE 22:48:03 30° NNE 22:51:00 10° N
ASTEX 1 3.9 22:42:10 10° N 22:47:06 58° W 22:47:51 52° WSW
GEOS 3 Rocket 4.5 22:43:18 10° NE 22:46:18 36° NE 22:46:18 36° NE
Cosmos 1726 Rocket 4.3 22:51:06 50° NW 22:51:06 50° NW 22:54:43 10° N
Cosmos 1340 4.3 22:47:44 10° NNW 22:50:15 33° NW 22:50:15 33° NW
SPOT 1/Viking Rocket 3.7 22:55:16 68° W 22:55:16 68° W 23:00:23 10° NNW
Cosmos 990 Rocket 4.4 22:53:35 10° NNW 22:58:33 55° W 22:58:33 55° W
DELTA 2 R/B (1) 4.5 22:54:14 10° W 22:58:08 38° WSW 22:58:08 38° WSW
Cosmos 1697 Rocket 4.2 22:58:05 10° WSW 23:03:11 34° WNW 23:08:18 10° N
CZ-4B R/B 4.0 22:59:35 10° N 23:03:16 51° NNW 23:03:16 51° NNW
SL-16 R/B 3.6 23:10:03 27° NE 23:10:03 27° NE 23:12:38 10° NNE
Cosmos 1816 Rocket 4.4 23:01:14 10° N 23:07:25 82° NE 23:07:25 82° NE
Cosmos 1725 Rocket 4.1 23:08:47 64° WSW 23:09:26 69° W 23:15:40 10° N
USA 215 3.1 23:22:51 85° N 23:22:51 85° N 23:29:15 10° NW
Meteor 2-5 Rocket 4.5 23:17:19 10° N 23:21:43 47° NNE 23:21:43 47° NNE
Cosmos 1125 Rocket 4.4 23:18:43 10° NNW 23:22:23 47° NNW 23:22:23 47° NNW
Cosmos 1980 Rocket 3.5 23:22:05 22° WSW 23:25:09 37° WNW 23:30:25 10° N
ARGOS 4.2 23:26:17 38° W 23:26:17 38° W 23:30:56 10° NNW
Cosmos 2233 Rocket 4.3 23:38:14 61° NW 23:38:14 61° NW 23:43:39 10° N
BREEZE-M DEB (TANK) 4.2 23:12:16 10° WNW 23:37:54 81° NNE 23:38:41 73° E
Lacrosse 5 4.0 23:39:50 10° WNW 23:41:52 21° W 23:41:52 21° W
